Temperature
19 20 20 20 20 20 20 21 21 21 20 20 20 20 20 20 20 20 20 20 20 20 20 20 20 20 19 19 19 19 19 19 19 19 19 19 19 19 19 18 18 19 19
20 20 20 20 20 20 20 20 20 20 20 20 20 20 20 20 20 20 20 20 20 20 20 20 20 19 19 19 19 19 19 19 19 19 19 19 19 19 19 19 18 19 18
20 20 20 20 20 20 20 20 20 20 20 20 20 20 20 20 20 20 20 20 20 20 20 19 19 19 19 19 19 19 19 19 19 19 19 19 19 19 19 19 19 19 18
21 20 20 20 20 20 20 20 20 20 20 20 20 20 20 20 20 20 20 20 20 20 19 19 19 19 19 19 19 19 19 19 19 19 19 19 19 19 19 19 19 18 18
21 20 20 20 20 20 20 20 20 20 20 20 20 20 20 20 20 20 20 20 19 19 19 19 19 19 19 19 19 19 19 18 18 19 19 19 19 19 19 19 19 18 18
20 20 20 20 20 20 20 20 20 20 20 20 20 20 20 20 20 20 19 19 19 19 19 19 19 19 19 19 19 19 18 18 18 18 18 18 18 18 19 19 18 18 18
20 20 20 20 20 20 20 20 20 20 20 20 20 20 20 20 19 19 19 19 19 19 19 19 19 19 19 19 19 19 18 18 18 18 18 18 18 18 18 18 18 18 18
20 20 20 20 20 20 20 20 20 20 20 20 20 20 19 19 19 19 19 19 19 19 19 19 19 19 19 19 19 18 18 18 18 18 18 18 18 18 18 18 18 18 18
20 19 20 19 19 19 19 19 19 20 20 19 19 19 19 19 19 19 19 19 19 19 19 19 19 19 19 19 19 18 18 18 18 18 18 18 18 18 18 18 18 18 18
19 19 19 19 19 19 19 19 19 19 19 19 19 19 19 19 19 19 19 19 19 19 19 19 19 19 19 19 18 18 18 18 18 18 18 18 18 18 18 18 18 18 18
19 19 19 19 19 19 19 19 19 19 19 19 19 19 19 19 19 19 19 19 19 19 19 19 19 19 19 19 18 18 18 18 18 18 18 18 18 18 18 18 18 18 18
18 18 18 18 18 18 19 19 19 19 18 18 18 18 19 19 19 19 19 19 18 19 19 19 19 19 19 19 19 18 18 18 18 18 18 18 18 18 18 18 18 18 18
18 18 18 18 18 18 18 18 18 18 18 18 18 18 18 18 18 19 19 18 18 18 19 19 19 19 19 19 19 18 18 18 18 18 18 18 18 18 18 18 18 18 18
17 17 18 18 18 18 18 18 18 18 18 18 18 18 18 18 18 18 18 18 18 18 18 19 19 19 19 19 18 18 18 18 18 18 18 18 18 18 18 18 18 18 18
17 17 17 17 17 17 17 17 18 18 18 18 18 18 18 18 18 18 18 18 18 18 18 18 19 19 19 19 18 18 18 18 18 18 18 18 18 18 18 18 18 18 18
16 16 16 16 16 16 17 17 17 17 17 17 17 18 18 18 18 18 18 18 18 18 18 18 18 19 19 18 18 19 18 18 18 18 18 18 18 18 18 18 18 18 18
16 16 16 16 16 16 16 16 16 17 17 17 17 17 17 18 18 18 18 18 18 18 18 18 18 18 18 18 19 19 19 19 18 18 18 18 18 18 18 18 18 18 18
15 15 15 15 15 15 15 16 16 16 16 16 17 17 17 17 17 17 18 18 18 18 18 18 18 18 18 18 18 19 19 19 18 18 18 18 18 18 18 18 18 18 18
15 15 14 14 15 15 15 15 15 15 16 16 16 16 17 17 17 17 17 17 17 17 17 18 18 18 18 18 18 19 18 18 18 18 18 18 18 18 18 18 18 18 18
14 14 14 14 14 14 14 14 15 15 15 15 16 16 16 16 17 17 17 17 17 17 17 17 17 18 18 18 18 18 18 18 18 18 18 18 18 18 18 18 18 18 18
14 14 14 14 14 14 14 14 14 14 15 15 15 15 16 16 16 16 16 17 17 17 17 17 17 17 18 18 18 18 18 18 18 18 18 18 18 18 18 18 18 18 18
13 13 13 13 13 13 13 13 13 14 14 14 15 15 15 16 16 16 16 16 16 17 17 17 17 17 17 17 17 18 18 18 18 18 18 18 18 18 18 17 17 18 18
13 13 13 13 13 13 13 13 13 14 14 14 14 15 15 15 15 16 16 16 16 16 16 17 17 17 17 17 17 17 17 17 18 18 18 18 18 18 18 18 17 17 17
13 13 13 13 13 13 13 13 13 13 13 13 14 14 14 15 15 15 15 16 16 16 16 16 16 17 17 17 17 17 17 17 18 17 17 17 17 17 17 17 17 17 17
12 12 12 12 13 13 13 13 13 13 13 13 13 14 14 14 14 15 15 15 15 16 16 16 16 16 16 16 16 16 16 17 17 17 17 17 17 17 17 17 17 17 17
13 12 12 12 12 12 13 13 12 13 13 13 13 13 14 14 14 15 15 15 15 15 15 16 16 16 16 16 16 16 16 16 17 17 17 17 17 17 17 17 17 17 17
Wind_Speed
5 8 13 13 12 12 12 12 11 10 10 9 9 9 9 9 9 9 8 8 8 7 7 7 7 7 7 7 7 7 8 8 8 8 8 8 8 8 8 8 8 7 9
9 12 13 13 12 12 12 11 10 10 9 9 9 8 8 8 8 7 7 7 7 6 7 6 6 6 6 6 6 6 7 7 7 6 6 6 7 8 8 8 8 7 8
11 13 13 13 12 11 11 11 10 9 9 8 8 8 7 7 6 6 6 6 6 6 6 6 5 5 5 5 5 5 6 7 6 5 5 4 5 7 7 8 8 7 7
14 13 13 13 12 11 11 10 9 9 8 8 7 7 7 6 6 6 6 5 5 5 5 5 5 5 4 4 3 4 5 6 6 5 4 4 4 6 7 7 7 7 7
13 13 14 14 13 12 11 10 9 9 8 8 7 7 7 6 6 6 5 5 5 5 5 4 4 4 3 3 2 2 4 6 5 5 5 5 5 6 7 7 7 6 6
11 13 15 15 13 12 11 10 9 9 8 8 7 7 7 7 6 5 5 5 5 5 4 4 4 3 3 2 0 1 3 5 5 4 5 5 5 7 8 7 6 6 6
9 12 14 15 13 12 11 10 10 9 9 8 8 8 7 7 7 6 6 5 5 5 4 4 4 4 3 2 1 1 2 3 3 3 4 5 5 7 7 7 6 6 6
7 8 11 14 13 12 11 11 10 10 10 9 9 9 8 8 8 7 7 6 6 6 5 5 5 5 4 4 3 2 2 2 4 2 4 5 6 7 7 6 6 6 6
5 4 4 8 10 11 12 12 12 12 12 11 11 10 10 9 9 9 8 8 8 7 7 6 6 6 6 5 5 4 2 2 3 2 5 6 7 7 7 7 6 6 6
5 3 1 1 4 6 9 11 13 14 14 13 13 12 12 11 11 11 10 10 10 9 9 8 8 8 7 7 6 5 3 1 2 2 6 7 8 8 8 7 6 6 6
5 4 3 2 1 5 7 9 11 12 14 14 14 15 14 12 12 12 12 13 12 12 11 10 10 9 9 8 8 7 4 1 2 5 8 9 10 9 8 7 7 6 6
6 5 4 3 2 3 4 6 7 9 10 12 12 13 12 12 12 12 13 15 15 14 13 12 12 11 10 8 8 8 4 4 4 6 9 11 11 10 9 8 7 7 7
5 6 5 3 4 3 3 4 4 6 8 10 12 13 12 11 10 11 10 12 13 14 12 11 11 10 9 8 7 7 6 6 6 8 10 12 12 11 10 9 8 7 7
5 6 6 4 4 4 4 4 4 4 5 6 10 12 10 6 6 7 8 9 10 9 8 8 7 9 10 10 9 7 7 7 8 9 11 13 13 12 11 10 9 8 8
6 7 6 5 4 4 3 3 3 3 4 6 7 8 10 6 5 5 6 8 9 9 8 6 6 7 7 8 9 8 7 9 10 11 12 14 14 12 11 10 10 10 9
8 8 7 7 5 4 3 3 3 4 5 6 6 8 9 7 6 5 5 5 7 9 10 8 7 6 6 6 7 7 8 10 11 12 12 14 15 13 12 11 11 10 10
7 8 8 8 6 6 5 5 4 5 6 5 6 8 8 9 7 5 5 6 6 9 10 7 7 5 5 5 5 5 6 8 10 12 13 12 13 14 13 12 12 11 11
7 8 8 9 8 7 6 5 5 6 5 5 6 7 7 8 8 5 5 6 6 6 5 5 5 4 4 3 3 3 4 6 9 11 11 12 12 11 13 13 13 12 11
7 8 8 8 8 8 7 5 5 5 5 5 6 5 6 7 8 6 6 5 6 4 4 5 4 4 4 3 3 3 3 5 6 8 8 10 12 12 12 13 14 13 13
8 8 8 8 8 8 6 5 5 5 5 4 4 5 6 6 7 6 5 6 6 5 5 5 4 3 3 3 2 2 2 3 5 6 7 8 10 12 13 12 13 13 14
8 8 8 8 8 7 5 5 5 5 5 5 4 6 6 6 6 5 6 6 6 7 7 7 5 4 3 2 2 1 2 1 3 4 5 5 6 10 11 12 12 12 12
8 8 8 8 8 8 6 5 4 5 5 5 4 5 6 5 5 5 6 6 7 6 7 7 6 4 3 3 4 3 1 2 1 2 3 5 6 6 7 11 10 11 11
8 9 9 9 9 8 8 5 5 4 4 4 4 4 4 5 5 4 5 5 6 7 7 8 8 7 5 3 3 4 4 5 2 1 1 3 5 5 5 7 10 11 11
8 8 8 9 9 9 8 6 6 5 5 5 5 5 6 5 5 4 4 5 5 5 7 8 8 6 6 5 3 2 2 4 4 2 0 1 3 4 5 4 6 10 12
8 8 8 9 9 9 8 7 6 5 5 5 5 5 5 5 4 4 4 4 5 5 6 7 6 7 6 6 5 4 2 1 2 3 3 1 1 1 3 3 3 6 10
7 8 8 9 9 9 9 8 7 7 7 6 6 6 5 4 3 4 4 4 4 4 5 6 6 8 7 7 6 5 4 4 3 3 3 2 2 1 1 2 2 4 8
Wind_Direction
160 167 150 144 139 136 136 135 135 131 128 126 123 118 114 110 107 103 101 99 94 92 90 87 85 83 80 72 67 62 59 57 59 62 65 68 69 69 75 93 94 98 102
155 159 149 145 141 139 138 138 138 137 134 132 130 128 124 120 117 113 109 107 102 100 97 92 91 88 85 76 68 61 55 50 49 59 69 71 71 76 82 96 100 104 108
146 151 149 146 143 141 140 140 140 140 139 138 137 136 133 131 129 127 122 116 111 109 108 103 102 98 92 82 74 60 48 40 40 59 83 89 81 82 87 98 102 105 111
146 150 152 150 148 147 146 145 144 145 146 146 146 146 144 142 141 139 135 129 123 122 122 119 113 108 101 90 72 52 40 33 41 61 94 102 90 89 94 100 105 106 111
149 152 155 156 155 154 153 152 152 152 153 154 154 156 156 154 154 154 150 145 138 133 132 130 126 122 116 106 72 38 31 31 50 74 101 106 101 100 97 96 105 109 115
151 156 161 161 162 163 162 162 162 164 166 168 169 170 170 169 167 167 168 163 156 152 151 151 150 145 141 140 118 9 18 28 55 90 118 123 116 109 100 100 108 115 118
152 161 167 168 170 171 172 174 176 178 181 184 185 185 186 185 184 182 181 179 175 174 171 170 172 173 178 194 218 291 359 17 69 109 142 141 130 116 107 103 102 106 115
149 160 172 176 178 180 183 187 190 192 196 198 198 199 198 197 197 196 196 194 191 189 189 190 192 196 207 220 231 256 319 26 68 104 153 155 145 129 122 114 111 118 115
105 135 165 183 187 193 196 200 202 204 207 208 209 208 206 207 208 207 207 207 204 202 204 207 207 211 221 231 240 251 279 30 79 147 168 168 155 141 133 128 125 124 121
68 66 82 167 204 213 215 216 217 215 215 215 215 214 214 215 216 216 215 214 213 212 214 216 217 221 228 237 245 253 266 67 88 175 170 173 162 150 142 138 133 130 127
45 35 33 37 247 237 234 230 229 227 226 225 222 220 218 218 221 224 223 220 219 219 219 221 224 230 235 243 251 257 259 171 151 170 175 178 169 160 154 150 144 142 139
19 15 10 343 318 281 257 253 243 238 239 233 227 225 221 217 221 228 231 229 225 223 222 224 228 235 241 245 254 261 242 202 182 183 187 183 174 166 161 157 152 151 149
8 9 2 350 344 322 295 286 261 249 244 239 232 230 226 221 222 229 232 234 230 225 221 225 229 233 239 243 246 244 229 207 199 193 195 187 177 172 166 164 163 158 154
1 353 347 345 346 335 319 301 274 259 249 240 233 229 222 219 218 222 223 218 215 211 208 217 224 232 239 245 246 241 219 200 200 195 197 191 180 176 171 167 166 164 160
357 346 338 332 338 334 327 314 307 281 265 254 247 234 219 214 219 220 224 214 208 203 205 212 221 228 235 241 241 230 211 200 197 190 193 193 184 179 175 172 171 169 166
357 348 340 336 340 335 324 309 294 287 277 265 249 242 228 216 214 212 219 214 211 209 208 209 213 220 229 230 232 224 209 197 193 188 190 193 188 184 181 178 176 175 172
353 350 347 343 346 335 322 311 310 295 291 275 264 257 239 223 219 210 210 216 215 214 212 210 214 220 230 227 225 219 196 187 183 186 188 188 188 188 186 183 180 179 176
355 349 344 347 340 329 320 307 302 299 292 282 280 273 254 233 224 217 212 212 205 204 208 205 201 199 217 210 208 199 177 175 176 182 184 186 186 186 189 189 184 182 183
355 347 342 338 334 327 321 310 305 300 290 287 286 280 269 253 233 216 218 215 197 194 205 211 200 189 192 193 200 186 166 167 175 180 181 187 189 188 187 192 188 185 186
351 348 343 339 336 330 326 321 315 310 299 291 283 276 271 261 246 225 223 214 195 191 201 200 192 189 183 181 193 179 162 166 167 176 187 187 192 193 190 190 190 192 192
352 349 345 342 337 337 331 326 318 314 306 298 286 281 275 266 253 232 232 218 205 201 202 195 186 188 188 152 123 74 12 41 167 179 183 173 186 192 191 192 192 192 195
347 344 343 339 333 330 320 305 287 290 289 285 288 290 283 275 261 246 228 218 210 206 204 201 186 178 184 162 149 129 108 346 327 194 175 176 180 183 186 195 197 196 197
345 340 340 332 331 328 325 320 319 314 309 312 310 301 289 284 270 254 235 221 213 205 206 206 193 180 181 181 163 152 161 199 218 305 191 173 167 169 184 191 199 200 200
335 334 332 331 330 330 331 332 330 324 310 294 291 288 293 286 275 261 239 225 218 209 209 209 197 186 171 176 177 186 171 157 152 170 306 147 161 172 178 185 196 200 201
332 336 335 333 334 334 336 333 329 324 309 304 305 303 301 292 276 267 250 232 222 215 214 212 200 188 182 179 175 166 160 128 124 143 168 170 127 171 170 174 187 196 200
336 338 337 339 335 337 339 341 339 334 329 332 329 321 315 306 290 279 261 239 225 217 214 213 205 198 194 187 184 174 164 163 171 153 153 165 174 204 163 172 180 191 199
Height
1550 1551 1553 1554 1554 1555 1556 1556 1557 1558 1558 1559 1559 1559 1560 1560 1560 1560 1560 1560 1560 1560 1560 1560 1560 1559 1559 1559 1559 1559 1558 1557 1557 1556 1556 1555 1555 1555 1554 1554 1554 1554 1554
1550 1552 1553 1554 1555 1556 1556 1557 1557 1558 1558 1559 1559 1559 1559 1560 1560 1560 1560 1560 1560 1560 1560 1560 1560 1560 1559 1559 1559 1559 1559 1558 1558 1557 1557 1556 1556 1555 1555 1555 1555 1555 1555
1551 1552 1553 1554 1555 1556 1556 1557 1557 1557 1558 1558 1558 1559 1559 1559 1559 1559 1559 1559 1559 1559 1559 1559 1559 1559 1559 1559 1559 1559 1559 1559 1558 1558 1557 1557 1556 1556 1555 1555 1555 1555 1555
1551 1552 1554 1554 1555 1556 1556 1557 1557 1557 1558 1558 1558 1558 1558 1559 1559 1559 1559 1559 1559 1559 1559 1559 1559 1559 1559 1559 1559 1559 1559 1559 1558 1558 1558 1557 1557 1556 1556 1556 1555 1556 1556
1552 1553 1554 1554 1555 1556 1556 1556 1557 1557 1557 1557 1557 1558 1558 1558 1558 1558 1558 1558 1558 1558 1558 1558 1558 1559 1559 1559 1559 1559 1559 1559 1559 1558 1558 1558 1557 1557 1556 1556 1556 1556 1556
1553 1553 1554 1555 1555 1555 1556 1556 1556 1557 1557 1557 1557 1557 1557 1557 1557 1557 1557 1557 1557 1558 1558 1558 1558 1558 1558 1559 1559 1559 1559 1559 1559 1559 1558 1558 1558 1557 1557 1557 1557 1557 1557
1553 1553 1554 1555 1555 1555 1556 1556 1556 1556 1556 1556 1556 1556 1556 1556 1556 1557 1557 1557 1557 1557 1557 1557 1557 1557 1558 1558 1558 1559 1559 1559 1559 1559 1559 1558 1558 1558 1558 1558 1557 1557 1558
1553 1553 1554 1554 1555 1555 1555 1555 1555 1555 1555 1555 1555 1555 1555 1555 1555 1555 1556 1556 1556 1556 1556 1556 1556 1556 1557 1557 1558 1558 1558 1559 1559 1559 1559 1559 1559 1558 1558 1558 1558 1558 1558
1553 1553 1553 1553 1554 1554 1554 1554 1554 1554 1554 1554 1554 1554 1554 1554 1554 1554 1554 1554 1555 1555 1555 1555 1555 1555 1556 1556 1557 1557 1558 1558 1559 1559 1559 1559 1559 1559 1558 1558 1559 1559 1559
1553 1553 1553 1553 1553 1552 1552 1552 1552 1552 1552 1552 1552 1552 1552 1552 1552 1553 1553 1553 1553 1553 1554 1554 1554 1554 1555 1555 1556 1557 1557 1558 1558 1559 1559 1559 1559 1559 1559 1559 1559 1559 1559
1553 1552 1552 1551 1551 1551 1551 1550 1550 1550 1550 1550 1550 1550 1550 1550 1550 1551 1551 1551 1551 1552 1552 1552 1553 1553 1554 1554 1555 1556 1556 1557 1558 1558 1559 1559 1559 1559 1559 1559 1559 1559 1560
1552 1551 1551 1550 1549 1549 1548 1548 1548 1547 1547 1547 1548 1548 1548 1548 1548 1549 1549 1549 1549 1550 1550 1551 1551 1552 1552 1553 1554 1555 1556 1557 1557 1558 1558 1559 1559 1559 1559 1559 1559 1559 1560
1552 1551 1550 1549 1547 1547 1546 1545 1545 1545 1545 1545 1545 1545 1545 1545 1545 1546 1546 1547 1547 1548 1548 1549 1549 1550 1551 1552 1553 1554 1555 1556 1557 1557 1558 1558 1558 1558 1558 1559 1559 1560 1560
1552 1550 1549 1547 1546 1544 1543 1542 1542 1541 1541 1541 1541 1542 1542 1542 1542 1543 1543 1544 1544 1545 1546 1547 1548 1549 1550 1551 1552 1553 1554 1555 1556 1557 1557 1558 1558 1558 1558 1558 1559 1559 1560
1551 1549 1547 1545 1544 1542 1540 1539 1538 1538 1537 1537 1537 1538 1538 1538 1539 1539 1540 1541 1542 1543 1544 1545 1546 1547 1548 1549 1550 1551 1552 1554 1555 1556 1556 1557 1557 1557 1557 1558 1558 1559 1560
1549 1547 1545 1543 1541 1539 1537 1536 1535 1534 1533 1533 1533 1533 1533 1534 1534 1535 1536 1537 1538 1540 1541 1542 1544 1545 1546 1547 1548 1549 1550 1552 1553 1554 1555 1556 1556 1556 1556 1557 1557 1558 1559
1548 1545 1543 1540 1538 1536 1534 1532 1531 1530 1529 1528 1528 1528 1528 1529 1529 1530 1532 1532 1534 1536 1538 1539 1541 1542 1543 1545 1546 1547 1548 1549 1551 1552 1554 1555 1555 1555 1555 1556 1556 1557 1559
1546 1543 1540 1537 1534 1532 1530 1528 1526 1525 1524 1523 1523 1523 1523 1524 1525 1526 1527 1528 1530 1532 1534 1535 1537 1538 1540 1542 1543 1545 1546 1547 1549 1551 1552 1553 1554 1554 1554 1555 1555 1557 1558
1544 1541 1537 1534 1531 1528 1526 1524 1522 1521 1520 1519 1518 1518 1518 1519 1520 1520 1522 1524 1525 1527 1529 1531 1533 1535 1536 1538 1541 1542 1544 1545 1547 1549 1550 1552 1553 1553 1554 1554 1555 1556 1557
1542 1539 1535 1531 1528 1525 1522 1520 1518 1517 1515 1514 1514 1513 1513 1514 1515 1515 1517 1518 1520 1522 1524 1527 1529 1531 1533 1535 1538 1540 1542 1543 1544 1546 1548 1549 1551 1552 1553 1553 1554 1554 1555
1540 1537 1533 1529 1526 1522 1519 1516 1514 1512 1511 1510 1509 1508 1509 1509 1510 1510 1512 1513 1515 1517 1519 1522 1524 1527 1529 1532 1534 1537 1539 1540 1542 1543 1545 1546 1548 1550 1551 1552 1553 1554 1554
1539 1535 1531 1527 1523 1520 1517 1514 1511 1509 1507 1505 1505 1504 1504 1504 1505 1505 1506 1508 1510 1512 1514 1517 1520 1522 1525 1528 1530 1533 1535 1538 1538 1540 1542 1543 1545 1547 1549 1550 1551 1552 1553
1538 1533 1529 1525 1522 1518 1515 1511 1509 1506 1504 1502 1501 1500 1499 1499 1499 1500 1501 1503 1505 1507 1509 1512 1514 1517 1520 1523 1526 1528 1531 1532 1534 1537 1538 1540 1542 1544 1546 1547 1549 1551 1552
1537 1533 1529 1524 1521 1517 1513 1510 1506 1503 1500 1499 1497 1496 1495 1495 1495 1496 1497 1498 1500 1502 1504 1506 1509 1512 1515 1517 1520 1523 1527 1528 1530 1532 1535 1537 1539 1540 1542 1544 1546 1548 1550
1537 1533 1528 1524 1520 1516 1512 1508 1505 1502 1499 1496 1495 1493 1492 1491 1491 1492 1492 1494 1495 1497 1499 1501 1504 1507 1510 1512 1515 1518 1521 1524 1526 1528 1530 1533 1535 1537 1539 1541 1543 1545 1547
1537 1533 1528 1524 1520 1516 1512 1508 1504 1501 1497 1495 1492 1491 1490 1489 1489 1489 1489 1490 1491 1493 1495 1497 1499 1502 1505 1508 1510 1513 1516 1519 1521 1524 1526 1529 1531 1534 1535 1538 1540 1542 1544